Regional Weather Roundup
Issued by NWS

Home | Current Version | Previous Version | Graphics & Text | Print | Product List | Glossary On
Versions: 1 2 3 4 5 6 7 8 9 10 11 12 13 14 15 16 17 18 19 20 21 22 23 24 25 26 27 28 29 30 31 32 33 34 35 36 37 38 39 40 41 42 43 44 45 46 47 48 49 50
000
ASUS43 KMKX 282014
RWRWI

WISCONSIN REGIONAL WEATHER ROUNDUP
NATIONAL WEATHER SERVICE MILWAUKEE/SULLIVAN WI
300 PM CDT THU MAY 28 2015

NOTE: "FAIR" INDICATES FEW OR NO CLOUDS BELOW 12,000 FEET WITH NO
SIGNIFICANT WEATHER AND/OR OBSTRUCTIONS TO VISIBILITY.

WIZ001-002-006>008-014>016-023>028-282100-
NORTHWEST WISCONSIN

CITY           SKY/WX    TMP DP  RH WIND       PRES   REMARKS
SUPERIOR ARPT  CLOUDY    46  42  88 E12G17    30.06F
ASHLAND        MOSUNNY   64  53  67 N8        30.03F
HAYWARD        MOSUNNY   84  48  28 S22G30    30.02S HX  82
SIREN          MOSUNNY   83  48  29 S13G23    30.00F HX  81
CUMBERLAND     SUNNY     79  52  38 S15G22    30.03F
RICE LAKE      MOSUNNY   84  45  25 S15G23    30.05F HX  81
CHETEK         SUNNY     82  53  36 MISG      30.04F HX  81
LADYSMITH      MOSUNNY   82  52  35 SW16      30.07S HX  81
EAU CLAIRE     MOSUNNY   84  54  35 SW14      30.04F HX  83
MENOMONIE      MOSUNNY   83  53  36 S13       30.04F HX  81
NEW RICHMOND   SUNNY     82  52  35 S18G29    30.03S HX  81
OSCEOLA        MOSUNNY   84  53  34 S14G20    30.04S HX  82
$$

WIZ003>005-009-010-017-018-282100-
NORTH CENTRAL WISCONSIN

CITY           SKY/WX    TMP DP  RH WIND       PRES   REMARKS
MANITOWISH WTR PTSUNNY   80  54  39 S14G20    30.05F HX  80
ARBOR VITAE    MOSUNNY   81  53  38 SW12G18   30.06F HX  80
WOODRUFF       MOSUNNY   81  53  38 SW12G18   30.06F HX  80
RHINELANDER    MOSUNNY   82  55  39 SW12      30.09F HX  81
EAGLE RIVER    MOSUNNY   82  48  31 S9G20     30.06F HX  80
LAND O LAKES   MOSUNNY   83  47  28 SW12G20   30.07F HX  81
PHILLIPS       MOSUNNY   80  54  40 S10G22    30.05F HX  80
TOMAHAWK       MOSUNNY   80  54  40 S6        30.08F HX  80
MEDFORD        MOSUNNY   79  55  43 SW14      30.09S
MERRILL        MOSUNNY   81  60  48 S8        30.09F HX  82
$$

WIZ029-030-035-036-043>047-282100-
CENTRAL WISCONSIN

CITY           SKY/WX    TMP DP  RH WIND       PRES   REMARKS
WAUSAU         MOSUNNY   81  56  42 S10       30.07F HX  81
MOSINEE        MOSUNNY   81  57  44 S14       30.10F HX  81
MARSHFIELD     MOSUNNY   83  56  39 S13G22    30.08F HX  82
STEVENS POINT  MOSUNNY   83  54  37 S14       30.10S HX  82
WAUPACA        MOSUNNY   86  54  33 S10       30.10S HX  84
WAUTOMA        MOSUNNY   85  55  35 SE12      30.10F HX  83
WISC RAPIDS    MOSUNNY   84  50  30 SW15      30.10F HX  82
CAMP DOUGLAS   PTSUNNY   81  57  44 S8        30.09F HX  81
$$

WIZ011>013-019>022-031-037>040-048>050-282100-
NORTHEAST WISCONSIN

CITY           SKY/WX    TMP DP  RH WIND       PRES   REMARKS
ANTIGO         MOSUNNY   78  59  52 SW5       30.10F HX  80
SHAWANO        MOSUNNY   82  59  44 S3        30.09F HX  82
OCONTO         SUNNY     78  64  61 SE7       30.10S
STURGEON BAY   SUNNY     72  63  73 SE13      30.15F
GREEN BAY      MOSUNNY   83  61  47 S15       30.11F HX  83
MANITOWOC      MOSUNNY   71  58  63 S15       30.15S
APPLETON       PTSUNNY   81  57  44 S13G20    30.12F HX  81
CLINTONVILLE   CLOUDY    79  57  47 S8        30.09F HX  80
OSHKOSH        MOSUNNY   81  60  48 S10       30.12S HX  82
$$

WIZ032>034-041-042-053>061-282100-
SOUTHWEST WISCONSIN

CITY           SKY/WX    TMP DP  RH WIND       PRES   REMARKS
LA CROSSE      PTSUNNY   82  54  37 S15       30.07F HX  81
SPARTA         MOSUNNY   82  54  37 S14       30.10S HX  81
VIROQUA        PTSUNNY   81  56  41 S12       30.12F HX  81
BOSCOBEL       MOSUNNY   84  55  36 S9G17     30.11F HX  83
PRAIRIE DU CHI MOSUNNY   81  50  33 SE10G18   30.09F HX  80
PLATTEVILLE    MOSUNNY   78  55  44 S12       30.13F
$$

WIZ056-057-062-063-064-067-068-282100-
SOUTH CENTRAL WISCONSIN

CITY           SKY/WX    TMP DP  RH WIND       PRES   REMARKS
REEDSBURG      MOSUNNY   80  59  48 S14       30.11F HX  81
BARABOO/DELLS  MOSUNNY   79  58  49 SW10      30.12F HX  80
LONE ROCK      MOSUNNY   81  55  40 S16G23    30.12S HX  81
MINERAL POINT  MOSUNNY   81  52  36 S16       30.14S HX  80
MADISON        PTSUNNY   81  54  39 S14       30.13S HX  81
MIDDLETON      MOSUNNY   82  47  29 S12G20    30.14S HX  81
WATERTOWN      MOSUNNY  N/A N/A N/A S9        30.13F
MONROE         MOSUNNY   79  52  38 SE14G24   30.14F
JANESVILLE     MOSUNNY   82  52  34 S9        30.13F HX  81
$$

WIZ051-052-058>065-066-070>072-282100-
SOUTHEAST WISCONSIN

CITY           SKY/WX    TMP DP  RH WIND       PRES   REMARKS
MILWAUKEE      PTSUNNY   76  57  51 SE16      30.16F
WAUKESHA       MOSUNNY   79  54  41 SE12      30.16F
MILWAUKEE/TIMM MOSUNNY   81  52  36 SE15G22   30.16S HX  80
RACINE         MOSUNNY   73  54  51 S15       30.19F
BURLINGTON     MOSUNNY   80  56  43 SE13      30.16S HX  80
KENOSHA        MOSUNNY   77  57  50 SE16      30.18S
FOND DU LAC    MOSUNNY   80  60  50 S14       30.12F HX  81
SHEBOYGAN      MOSUNNY   77  61  57 S13       30.14S
WEST BEND      MOSUNNY   79  57  47 SE10G16   30.14F HX  80
JUNEAU         MOSUNNY   80  59  48 S10G16    30.14F HX  80
$$

LSZ147-162-282100-
LAKE SUPERIOR

STATION/POSITION TIME  TEMP    WIND        PRES    WAVE
                       AIR SEA DIR/SP/G            HT/PER
                 (UTC) (F)     (DEG/KT/KT) (MB)    (FT/S)
W MID LAKE BUOY  1950   38 37   30/ 14/ 17   N/A     3/ 4
DEVILS ISLAND    2000   40      40/ 13/ 16   N/A
PORT WING        1900   41      30/ 16/ 19   N/A
SAXON HARBOR     1900   45      CALM  /  4   N/A
$$

LMZ867-665-643>646-282100-
LAKE MICHIGAN

STATION/POSITION TIME  TEMP    WIND        PRES    WAVE
                       AIR SEA DIR/SP/G            HT/PER
                 (UTC) (F)     (DEG/KT/KT) (MB)    (FT/S)
CHAMBERS ISLAND  1900   58     330/  3/  4   N/A
N MID LAKE BUOY  1950   41 37  150/  6/  6   N/A     1
NORTHPORT PIER   1900   51     140/ 10/ 12   N/A
SISTER BAY       1948   77     190/ 14/ 18   N/A
ALGOMA LAKESHORE 1838          170/  2/  5   N/A
KEWAUNEE LAKESHO 1900   52     160/  9/ 10   N/A
SHEBOYGAN LAKESH 2000   56     170/ 22/ 24   N/A
PORT WASHINGTON  1940   61     190/  6/ 10   N/A
ATWATER BUOY     1900   53     200/  6/  8   N/A
MILWAUKEE LAKESH 1900   58     150/ 17/ 18   N/A
S MID LAKE BUOY  1950   57 39  190/  6/  6   N/A     0
KENOSHA   LAKESH 2000   60     170/ 10/ 11   N/A
$$

TC  - TEMPERATURE IN CELSIUS
VSB - VISIBILITY IN STATUTE MILES
WCI - WIND CHILL INDEX
HX  - HEAT INDEX



USA.gov is the U.S. government's official web portal to all federal, state and local government web resources and services.